Regional Weather Roundup
Issued by NWS Portland, ME

Current Version | Previous Version | Text Only | Print | Product List | Glossary Off
Versions: 1 2 3 4 5 6 7 8 9 10 11 12 13 14 15 16 17 18 19 20 21 22 23 24 25 26 27 28 29 30 31 32 33 34 35 36 37 38 39 40 41 42 43 44 45 46 47 48 49 50
000 ASUS41 KGYX 182310 RWRGYX WEATHER ROUNDUP FOR MAINE AND NEW HAMPSHIRE NATIONAL WEATHER SERVICE GRAY ME 700 PM EDT SAT AUG 18 2018 MEZ002-005-006-010-012-015-018-020-021-024-026-027-029-190000- MAINE CITY SKY/WX TMP DP RH WIND PRES REMARKS PORTLAND CLOUDY 70 64 81 N9 29.87R SANFORD CLOUDY 69 64 84 NE10 29.87R BAR HARBOR CLOUDY 67 61 81 N15 29.86R WISCASSET CLOUDY 69 63 81 VRB5 29.88R ROCKLAND CLOUDY 67 63 87 VRB5 29.86R FRYEBURG CLOUDY 67 63 87 NE3 29.91R LEWISTONAUBURN N/A 68 63 84 N10 29.88R AUGUSTA CLOUDY 68 60 75 N10 29.89R WATERVILLE FAIR 67 61 81 NE8 29.87R BANGOR MOCLDY 69 62 78 N9 29.88R GREENVILLE N/A 65 56 72 N8 29.92R MILLINOCKET FAIR 70 59 68 N3 29.90R HOULTON FAIR 68 64 87 CALM 29.87R PRESQUE ISLE FAIR 71 56 58 NE5 29.91R FRENCHVILLE FAIR 72 55 55 N7 29.92R CARIBOU FAIR 72 56 57 CALM 29.89S $$ NHZ002-005-008-009-011-012-014-190000- NEW HAMPSHIRE CITY SKY/WX TMP DP RH WIND PRES REMARKS PORTSMOUTH HVY RAIN 69 65 89 NE9G18 29.84R FOG ROCHESTER LGT RAIN 69 67 93 NE10 29.85R NASHUA MOCLDY 74 67 78 N7 29.84R MANCHESTER MOCLDY 75 64 68 N12 29.82R CONCORD CLOUDY 72 65 78 NW8 29.85R LACONIA LGT RAIN 69 64 84 NE12G21 29.89R PLYMOUTH CLOUDY 69 62 78 CALM 29.87R BERLIN CLOUDY 68 61 78 CALM 29.93R WHITEFIELD CLOUDY 67 62 84 CALM 29.92R JAFFREY MOCLDY 71 64 78 VRB6 29.88R KEENE MOCLDY N/A N/A N/A N13 29.86R LEBANON CLOUDY 70 61 73 NE5 29.89R MT WASHINGTON FOG 48 48 100 NE25G31 N/A VSB 1/16 $$ VTZ005-007-008-190000- VERMONT CITY SKY/WX TMP DP RH WIND PRES REMARKS ST JOHNSBURY N/A 68 62 81 MISG 29.90R MONTPELIER MOCLDY 66 62 87 N6 29.96R BURLINGTON MOCLDY 71 62 73 N5 29.92R $$ MAZ007-012-024-CTZ003-RIZ002-NYZ038-NYZ072-190000- SOUTHERN NEW ENGLAND AND NY CITY SKY/WX TMP DP RH WIND PRES REMARKS BOSTON CLOUDY 76 71 85 N7 29.81S WORCESTER FAIR 71 70 96 N3 29.85R NANTUCKET CLOUDY 76 75 97 SW5 29.80R PROVIDENCE RAIN 73 72 94 CALM 29.81R FOG HARTFORD MOCLDY 75 71 87 NE6 29.81R ALBANY MOCLDY 71 60 68 NE14 29.88R NEW YORK CITY MOCLDY 79 69 71 NW12 29.78R $$ ANZ081-ANZ082-ANZ150-NHZ014-MEZ023>029-190000- COASTAL MARINE OBSERVATIONS STATION/POSITION TIME TEMP WIND PRES WAVE AIR SEA DIR/SP/G HT/PER (UTC) (F) (DEG/KT/KT) (MB) (FT/S) MOUNT DESERT ROC 2300 59 360/ 12/ 13 1010.8R MATINICUS ROCK 2200 63 20/ 15/ 16 1009.8R ISLE OF SHOALS 2200 69 40/ 22/ 25 1008.4R JEFFREYS LEDGE 2236 70 N/A 2/ 5 $$ .............KEY.............. WCI - WIND CHILL TC - TEMPERATURE IN CELSIUS VSB - VISIBILITY IN MILES HX - HEAT INDEX FAIR- INDICATES FEW OR NO CLOUDS BELOW 12,000 FT, WITH NO SIGNIFICANT WEATHER AND/OR OBSTRUCTIONS TO VISIBILITY.

USA.gov is the U.S. government's official web portal to all federal, state and local government web resources and services.